This is the latest recevied weather packets stored in our database for station/object EA6AMI-5. If no packets are shown the sender has not sent any weather packets the latest 10 day(s).
| Time | Temp. | Humidity | Pressure | Rain* | Wind** | Luminosity | Snow |
|---|---|---|---|---|---|---|---|
| 1787384703 | 25° C | 69% | 1017 hPa | 0 mm | - | 87 W/m² | - |
| 1787384164 | 25.56° C | 69% | 1017 hPa | 0 mm | - | 89 W/m² | - |
| 1787383623 | 25.56° C | 68% | 1016.9 hPa | 0 mm | - | 78 W/m² | - |
| 1787383083 | 25.56° C | 69% | 1017.1 hPa | 0 mm | - | 144 W/m² | - |
| 1787382543 | 25° C | 69% | 1017.1 hPa | 0 mm | - | 175 W/m² | - |
| 1787382003 | 25° C | 71% | 1017.1 hPa | 0 mm | - | 154 W/m² | - |
| 1787381644 | 24.44° C | 71% | 1017.1 hPa | 0 mm | - | 108 W/m² | - |
| 1787381104 | 24.44° C | 71% | 1017.1 hPa | 0 mm | - | 79 W/m² | - |
| 1787380563 | 24.44° C | 72% | 1017.1 hPa | 0 mm | - | 76 W/m² | - |
| 1787380023 | 24.44° C | 72% | 1017.3 hPa | 0 mm | - | 64 W/m² | - |
| 1787379483 | 24.44° C | 72% | 1017.2 hPa | 0 mm | - | 45 W/m² | - |
| 1787378944 | 24.44° C | 72% | 1017.2 hPa | 0 mm | - | 54 W/m² | - |
| 1787378403 | 24.44° C | 73% | 1017 hPa | 0 mm | - | 43 W/m² | - |
| 1787378043 | 24.44° C | 74% | 1016.9 hPa | 0 mm | - | 37 W/m² | - |
| 1787377503 | 23.89° C | 75% | 1016.8 hPa | 0 mm | - | 34 W/m² | - |
| 1787376963 | 23.89° C | 75% | 1016.9 hPa | 0 mm | - | 19 W/m² | - |
| 1787376423 | 23.89° C | 75% | 1016.7 hPa | 0 mm | - | 12 W/m² | - |
| 1787375884 | 23.89° C | 75% | 1016.7 hPa | 0 mm | - | 6 W/m² | - |
| 1787375343 | 23.89° C | 75% | 1016.5 hPa | 0 mm | - | 3 W/m² | - |
| 1787374803 | 23.89° C | 76% | 1016.3 hPa | 0 mm | - | 1 W/m² | - |
| 1787374443 | 23.89° C | 75% | 1016.2 hPa | 0 mm | - | 0 W/m² | - |
| 1787373903 | 23.89° C | 75% | 1016.1 hPa | 0 mm | - | 0 W/m² | - |
| 1787373363 | 23.89° C | 76% | 1016 hPa | 0 mm | - | 0 W/m² | - |
| 1787372823 | 23.89° C | 76% | 1016.1 hPa | 0 mm | - | 0 W/m² | - |
| 1787371743 | 23.89° C | 75% | 1016 hPa | 0 mm | - | 0 W/m² | - |
* Rain latest hour (hover to see other rain measurements)
** Current wind speed in m/s (hover to see current wind gust speed)